ABS-4 (MOBISAT-1)

Last updated on Tue Sep 22 2026 00:03:10 GMT+0000 (Coordinated Universal Time)

1 28184U 04007A 26264.57244439 .00000039 00000+0 00000+0 0 9992 2 28184 6.2788 70.7887 0005283 112.7214 84.0558 1.00269540 53307
UTC large
Height (km)
Speed (km/s)
/
Latitude / Longitude
Inclination (degrees)
Orbital Period (minutes)
Azimuth
Elevation
Range (km)
Doppler Factor

Next 0 passes for location: London (51.5072 / 0.1276)

No passes found over London.
ABS-4 (MOBISAT-1)